TimeMDT,TemperatureF,Dew PointF,Humidity,Sea Level PressureIn,VisibilityMPH,Wind Direction,Wind SpeedMPH,Gust SpeedMPH,PrecipitationIn,Events,Conditions,WindDirDegrees,DateUTC
12:15 AM,26.6,24.8,93,30.26,10.0,South,11.5,-,N/A,,Clear,180,2014-03-16 06:15:00
12:35 AM,26.6,24.8,93,30.26,10.0,South,11.5,-,N/A,,Clear,190,2014-03-16 06:35:00
12:55 AM,26.6,24.8,93,30.24,10.0,South,8.1,-,N/A,,Clear,170,2014-03-16 06:55:00
1:15 AM,26.6,24.8,93,30.23,10.0,South,9.2,-,N/A,,Clear,190,2014-03-16 07:15:00
1:35 AM,26.6,24.8,93,30.23,10.0,South,11.5,-,N/A,,Clear,180,2014-03-16 07:35:00
1:55 AM,24.8,23.0,93,30.22,10.0,South,10.4,-,N/A,,Clear,180,2014-03-16 07:55:00
2:15 AM,26.6,24.8,93,30.22,10.0,South,11.5,-,N/A,,Clear,190,2014-03-16 08:15:00
2:35 AM,26.6,24.8,93,30.21,10.0,South,9.2,-,N/A,,Clear,180,2014-03-16 08:35:00
2:55 AM,26.6,24.8,93,30.19,10.0,South,9.2,-,N/A,,Clear,170,2014-03-16 08:55:00
3:15 AM,26.6,24.8,93,30.17,10.0,South,8.1,-,N/A,,Clear,180,2014-03-16 09:15:00
3:35 AM,26.6,24.8,93,30.17,10.0,South,5.8,-,N/A,,Clear,180,2014-03-16 09:35:00
3:55 AM,26.6,24.8,93,30.17,10.0,South,8.1,-,N/A,,Clear,170,2014-03-16 09:55:00
4:15 AM,26.6,24.8,93,30.16,10.0,SSE,6.9,-,N/A,,Clear,160,2014-03-16 10:15:00
4:35 AM,28.4,24.8,86,30.16,10.0,South,6.9,-,N/A,,Clear,170,2014-03-16 10:35:00
4:55 AM,28.4,26.6,93,30.15,10.0,South,5.8,-,N/A,,Mostly Cloudy,170,2014-03-16 10:55:00
5:15 AM,28.4,26.6,93,30.14,10.0,South,5.8,-,N/A,,Mostly Cloudy,190,2014-03-16 11:15:00
5:35 AM,28.4,26.6,93,30.13,10.0,South,6.9,-,N/A,,Mostly Cloudy,170,2014-03-16 11:35:00
5:55 AM,28.4,26.6,93,30.12,10.0,South,6.9,-,N/A,,Partly Cloudy,180,2014-03-16 11:55:00
6:15 AM,28.4,26.6,93,30.11,10.0,South,10.4,-,N/A,,Clear,190,2014-03-16 12:15:00
6:35 AM,28.4,26.6,93,30.08,10.0,South,11.5,-,N/A,,Mostly Cloudy,180,2014-03-16 12:35:00
6:55 AM,30.2,26.6,86,30.07,10.0,South,13.8,-,N/A,,Mostly Cloudy,190,2014-03-16 12:55:00
7:15 AM,30.2,26.6,86,30.04,10.0,South,13.8,-,N/A,,Partly Cloudy,190,2014-03-16 13:15:00
7:35 AM,30.2,26.6,86,30.04,10.0,South,10.4,-,N/A,,Clear,190,2014-03-16 13:35:00
7:55 AM,30.2,28.4,93,30.04,10.0,SSW,10.4,-,N/A,,Clear,200,2014-03-16 13:55:00
8:15 AM,30.2,28.4,93,30.03,10.0,SSW,8.1,-,N/A,,Clear,200,2014-03-16 14:15:00
8:35 AM,32.0,28.4,87,30.02,10.0,SSW,8.1,-,N/A,,Clear,210,2014-03-16 14:35:00
8:55 AM,33.8,30.2,87,30.01,10.0,SSW,15.0,19.6,N/A,,Clear,210,2014-03-16 14:55:00
9:15 AM,35.6,30.2,81,30.00,10.0,SSW,16.1,-,N/A,,Scattered Clouds,210,2014-03-16 15:15:00
9:35 AM,35.6,30.2,81,29.99,10.0,SSW,15.0,-,N/A,,Partly Cloudy,210,2014-03-16 15:35:00
9:55 AM,39.2,32.0,75,29.99,10.0,SSW,15.0,19.6,0.01,,Clear,200,2014-03-16 15:55:00
10:15 AM,42.8,32.0,66,29.98,10.0,SSW,15.0,-,N/A,,Partly Cloudy,210,2014-03-16 16:15:00
10:35 AM,42.8,32.0,66,29.97,10.0,SSW,17.3,-,N/A,,Mostly Cloudy,210,2014-03-16 16:35:00
10:55 AM,42.8,30.2,61,29.96,10.0,SW,12.7,-,N/A,,Overcast,220,2014-03-16 16:55:00
11:15 AM,44.6,30.2,57,29.97,10.0,SW,9.2,-,N/A,,Mostly Cloudy,230,2014-03-16 17:15:00
11:35 AM,46.4,30.2,53,29.95,10.0,SW,8.1,-,N/A,,Partly Cloudy,220,2014-03-16 17:35:00
11:55 AM,48.2,32.0,54,29.94,10.0,South,10.4,-,N/A,,Clear,190,2014-03-16 17:55:00
12:15 PM,50.0,33.8,54,29.92,10.0,SSW,8.1,-,N/A,,Clear,200,2014-03-16 18:15:00
12:35 PM,53.6,33.8,47,29.91,10.0,SW,15.0,-,N/A,,Clear,230,2014-03-16 18:35:00
12:55 PM,53.6,32.0,44,29.91,10.0,SW,12.7,23.0,N/A,,Partly Cloudy,220,2014-03-16 18:55:00
1:15 PM,55.4,32.0,41,29.88,10.0,SW,15.0,-,N/A,,Clear,230,2014-03-16 19:15:00
1:35 PM,55.4,30.2,38,29.87,10.0,SW,19.6,25.3,N/A,,Clear,220,2014-03-16 19:35:00
1:55 PM,55.4,33.8,44,29.85,10.0,SW,16.1,23.0,N/A,,Clear,220,2014-03-16 19:55:00
2:15 PM,59.0,30.2,34,29.83,10.0,SW,16.1,24.2,N/A,,Clear,230,2014-03-16 20:15:00
2:35 PM,60.8,30.2,31,29.82,10.0,West,19.6,24.2,N/A,,Clear,260,2014-03-16 20:35:00
2:55 PM,62.6,26.6,26,29.81,10.0,West,23.0,35.7,N/A,,Clear,270,2014-03-16 20:55:00
3:15 PM,62.6,26.6,26,29.80,10.0,West,25.3,32.2,N/A,,Clear,270,2014-03-16 21:15:00
3:35 PM,60.8,26.6,27,29.79,10.0,West,24.2,32.2,N/A,,Clear,270,2014-03-16 21:35:00
3:55 PM,60.8,28.4,29,29.79,10.0,West,23.0,27.6,N/A,,Clear,260,2014-03-16 21:55:00
4:15 PM,60.8,26.6,27,29.78,10.0,West,24.2,31.1,N/A,,Partly Cloudy,270,2014-03-16 22:15:00
4:35 PM,60.8,26.6,27,29.78,10.0,West,20.7,28.8,N/A,,Scattered Clouds,270,2014-03-16 22:35:00
4:55 PM,60.8,26.6,27,29.77,10.0,West,21.9,28.8,N/A,,Mostly Cloudy,260,2014-03-16 22:55:00
5:15 PM,59.0,26.6,29,29.77,10.0,West,18.4,25.3,N/A,,Overcast,270,2014-03-16 23:15:00
5:35 PM,59.0,26.6,29,29.77,10.0,West,12.7,21.9,N/A,,Overcast,270,2014-03-16 23:35:00
5:55 PM,60.8,26.6,27,29.76,10.0,West,21.9,25.3,N/A,,Overcast,280,2014-03-16 23:55:00
6:15 PM,59.0,26.6,29,29.75,10.0,WNW,15.0,-,N/A,,Overcast,290,2014-03-17 00:15:00
6:35 PM,55.4,28.4,36,29.74,10.0,WNW,9.2,-,N/A,,Mostly Cloudy,290,2014-03-17 00:35:00
6:55 PM,51.8,28.4,41,29.73,10.0,West,6.9,-,N/A,,Mostly Cloudy,260,2014-03-17 00:55:00
7:15 PM,48.2,26.6,43,29.73,10.0,West,9.2,-,N/A,,Partly Cloudy,270,2014-03-17 01:15:00
7:55 PM,42.8,28.4,57,29.72,10.0,West,8.1,-,N/A,,Mostly Cloudy,270,2014-03-17 01:55:00
8:15 PM,42.8,28.4,57,29.71,10.0,West,5.8,-,N/A,,Mostly Cloudy,260,2014-03-17 02:15:00
8:35 PM,42.8,28.4,57,29.71,10.0,West,8.1,-,N/A,,Mostly Cloudy,270,2014-03-17 02:35:00
8:55 PM,41.0,28.4,61,29.70,10.0,West,9.2,-,N/A,,Scattered Clouds,260,2014-03-17 02:55:00
9:15 PM,41.0,28.4,61,29.70,10.0,West,8.1,-,N/A,,Partly Cloudy,260,2014-03-17 03:15:00
9:35 PM,39.2,26.6,61,29.69,10.0,West,6.9,-,N/A,,Clear,260,2014-03-17 03:35:00
9:55 PM,37.4,26.6,65,29.67,10.0,West,6.9,-,N/A,,Clear,260,2014-03-17 03:55:00
10:15 PM,37.4,26.6,65,29.67,10.0,West,8.1,-,N/A,,Clear,280,2014-03-17 04:15:00
10:35 PM,37.4,28.4,70,29.67,10.0,WNW,8.1,-,N/A,,Clear,290,2014-03-17 04:35:00
10:55 PM,37.4,28.4,70,29.66,10.0,West,9.2,-,N/A,,Clear,280,2014-03-17 04:55:00
11:15 PM,39.2,30.2,70,29.66,10.0,NNW,5.8,-,N/A,,Scattered Clouds,330,2014-03-17 05:15:00
11:35 PM,42.8,30.2,61,29.65,10.0,West,6.9,-,N/A,,Partly Cloudy,280,2014-03-17 05:35:00
11:55 PM,41.0,30.2,65,29.64,10.0,West,6.9,-,N/A,,Clear,270,2014-03-17 05:55:00